TimeCEST,TemperatureF,Dew PointF,Humidity,Sea Level PressureIn,VisibilityMPH,Wind Direction,Wind SpeedMPH,Gust SpeedMPH,PrecipitationIn,Events,Conditions,WindDirDegrees,DateUTC
12:55 AM,59.0,55.4,88,29.74,6.2,WSW,17.3,-,N/A,,Scattered Clouds,250,2013-03-30 23:55:00
1:00 AM,59,55,84,29.76,11,WSW,17.3,,,,Partly Cloudy,250,2013-03-31 00:00:00
1:55 AM,57.2,57.2,100,29.74,6.2,West,15.0,-,N/A,,Mostly Cloudy,260,2013-03-31 00:55:00
3:55 AM,57.2,57.2,100,29.74,6.2,West,10.4,-,N/A,,Scattered Clouds,270,2013-03-31 01:55:00
4:55 AM,55.4,55.4,100,29.74,6.2,WSW,12.7,-,N/A,,Partly Cloudy,250,2013-03-31 02:55:00
5:00 AM,55,55,100,29.75,10,WSW,12.7,,,,Partly Cloudy,250,2013-03-31 03:00:00
5:55 AM,55.4,55.4,100,29.74,6.2,West,10.4,-,N/A,,Partly Cloudy,260,2013-03-31 03:55:00
6:55 AM,53.6,51.8,94,29.71,-9999.0,West,12.7,-,N/A,,Clear,270,2013-03-31 04:55:00
8:00 AM,56,50,74,29.76,11,West,13.8,,,,Partly Cloudy,260,2013-03-31 06:00:00
8:55 AM,59.0,46.4,63,29.74,6.2,West,15.0,-,N/A,,Partly Cloudy,270,2013-03-31 06:55:00
9:55 AM,62.6,46.4,55,29.74,6.2,West,15.0,-,N/A,,Partly Cloudy,260,2013-03-31 07:55:00
10:55 AM,66.2,42.8,43,29.74,6.2,West,15.0,-,N/A,,Partly Cloudy,270,2013-03-31 08:55:00
11:00 AM,66,43,32,29.75,9,West,15.0,,,,Scattered Clouds,270,2013-03-31 09:00:00
11:55 AM,68.0,39.2,35,29.74,6.2,West,15.0,-,N/A,,Scattered Clouds,280,2013-03-31 09:55:00
12:55 PM,69.8,39.2,33,29.74,6.2,West,17.3,-,N/A,,Scattered Clouds,280,2013-03-31 10:55:00
1:55 PM,71.6,41.0,33,29.74,6.2,West,17.3,-,N/A,,Scattered Clouds,260,2013-03-31 11:55:00
2:00 PM,71,41,23,29.75,11,West,17.3,,,,Partly Cloudy,260,2013-03-31 12:00:00
2:55 PM,69.8,41.0,35,29.74,6.2,West,23.0,-,N/A,,Scattered Clouds,260,2013-03-31 12:55:00
3:55 PM,69.8,44.6,40,29.74,6.2,WSW,21.9,-,N/A,,Scattered Clouds,250,2013-03-31 13:55:00
4:55 PM,68.0,48.2,49,29.71,6.2,WSW,20.7,-,N/A,,Scattered Clouds,250,2013-03-31 14:55:00
5:00 PM,68,48,37,29.74,9,WSW,20.7,,,,Partly Cloudy,250,2013-03-31 15:00:00
5:55 PM,66.2,48.2,52,29.71,6.2,WSW,17.3,-,N/A,,Scattered Clouds,250,2013-03-31 15:55:00
6:55 PM,64.4,50.0,59,29.74,6.2,West,17.3,-,N/A,,Scattered Clouds,260,2013-03-31 16:55:00
7:55 PM,60.8,51.8,72,29.74,6.2,West,12.7,-,N/A,,Scattered Clouds,260,2013-03-31 17:55:00
8:00 PM,60,51,65,29.75,9,West,12.7,,,,Scattered Clouds,260,2013-03-31 18:00:00
8:55 PM,57.2,51.8,82,29.80,6.2,West,8.1,-,N/A,,Partly Cloudy,260,2013-03-31 18:55:00
9:55 PM,57.2,51.8,82,29.80,-9999.0,West,12.7,-,N/A,,Clear,270,2013-03-31 19:55:00
10:55 PM,55.4,53.6,94,29.83,-9999.0,West,8.1,-,N/A,,Clear,280,2013-03-31 20:55:00
11:00 PM,55,54,95,29.83,6,West,8.1,,,,,280,2013-03-31 21:00:00
11:55 PM,55.4,55.4,100,29.83,-9999.0,West,4.6,-,N/A,,Clear,280,2013-03-31 21:55:00
12:55 AM,53.6,50.0,88,29.83,-9999.0,WNW,5.8,-,N/A,,Clear,290,2013-03-31 22:55:00